MAS715 WMKK-WADD

Flight info

Callsign MAS715
Flight time N/A
Altitude 41000
Route MITOS M630 BOBAG P501 ANITO B470 PKP L511 SBR M766 MOVMO
Aircraft A339/H-SADE1E2E3GHIJ3J5M1P2RWXY/LB2D1

Departure

Time N/A
Airport Kuala Lumpur International Airport (WMKK)

Arrival

Time 2026-04-28 15:27
Airport Denpasar I Gusti Ngurah Rai International Airport (WADD)
Time Latitude Longitude Altitude Speed Heading
2026-04-28 14:43 -6.11359 111.16849 40891 ft 462 kts 128°
2026-04-28 14:43 -6.15365 111.21920 40889 ft 465 kts 128°
2026-04-28 14:44 -6.19402 111.27033 40887 ft 469 kts 128°
2026-04-28 14:44 -6.23464 111.32178 40888 ft 471 kts 128°
2026-04-28 14:45 -6.27542 111.37344 40887 ft 472 kts 128°
2026-04-28 14:45 -6.31624 111.42518 40888 ft 472 kts 128°
2026-04-28 14:46 -6.35681 111.47662 40885 ft 472 kts 128°
2026-04-28 14:46 -6.39780 111.52859 40885 ft 472 kts 128°
2026-04-28 14:47 -6.43862 111.58037 40883 ft 472 kts 128°
2026-04-28 14:47 -6.47944 111.63216 40885 ft 473 kts 128°
2026-04-28 14:48 -6.52026 111.68399 40890 ft 473 kts 128°
2026-04-28 14:48 -6.56116 111.73591 40888 ft 473 kts 128°
2026-04-28 14:49 -6.60172 111.78742 40888 ft 473 kts 128°
2026-04-28 14:49 -6.64255 111.83929 40891 ft 473 kts 128°
2026-04-28 14:50 -6.68343 111.89124 40885 ft 473 kts 128°
2026-04-28 14:50 -6.72434 111.94324 40883 ft 474 kts 128°
2026-04-28 14:51 -6.76526 111.99526 40885 ft 474 kts 128°
2026-04-28 14:51 -6.80626 112.04741 40882 ft 475 kts 128°
2026-04-28 14:52 -6.84723 112.09954 40882 ft 476 kts 128°
2026-04-28 14:52 -6.88833 112.15184 40885 ft 476 kts 128°
2026-04-28 14:53 -6.92936 112.20409 40887 ft 477 kts 128°
2026-04-28 14:53 -6.97051 112.25648 40889 ft 477 kts 128°
2026-04-28 14:54 -7.01163 112.30885 40889 ft 477 kts 128°
2026-04-28 14:54 -7.05253 112.36097 40889 ft 477 kts 128°
2026-04-28 14:55 -7.09366 112.41341 40889 ft 477 kts 128°
2026-04-28 14:55 -7.13479 112.46585 40885 ft 477 kts 128°
2026-04-28 14:56 -7.17592 112.51830 40887 ft 477 kts 128°
2026-04-28 14:56 -7.21706 112.57079 40887 ft 477 kts 128°
2026-04-28 14:57 -7.25815 112.62324 40888 ft 477 kts 128°
2026-04-28 14:57 -7.29235 112.66690 40886 ft 477 kts 128°
2026-04-28 14:58 -7.33340 112.71932 40887 ft 477 kts 128°
2026-04-28 14:58 -7.37370 112.77240 40880 ft 476 kts 124°
2026-04-28 14:59 -7.40774 112.82963 40884 ft 476 kts 120°
2026-04-28 14:59 -7.44102 112.88737 40884 ft 476 kts 120°
2026-04-28 15:00 -7.47436 112.94501 40883 ft 476 kts 120°
2026-04-28 15:00 -7.50768 113.00271 40889 ft 476 kts 120°
2026-04-28 15:01 -7.54100 113.06046 40890 ft 476 kts 120°
2026-04-28 15:01 -7.57437 113.11831 40897 ft 478 kts 120°
2026-04-28 15:02 -7.60778 113.17625 40900 ft 478 kts 120°
2026-04-28 15:02 -7.64116 113.23417 40902 ft 478 kts 120°
2026-04-28 15:03 -7.67436 113.29180 40901 ft 478 kts 120°
2026-04-28 15:03 -7.70774 113.34976 40909 ft 478 kts 120°
2026-04-28 15:04 -7.74111 113.40773 40916 ft 478 kts 120°
2026-04-28 15:04 -7.77452 113.46579 40918 ft 478 kts 120°
2026-04-28 15:05 -7.80789 113.52378 40919 ft 478 kts 120°
2026-04-28 15:05 -7.84131 113.58188 40927 ft 479 kts 120°
2026-04-28 15:06 -7.87469 113.63997 40925 ft 479 kts 120°
2026-04-28 15:06 -7.90663 113.69557 40939 ft 478 kts 120°
2026-04-28 15:07 -7.92156 113.72157 40939 ft 478 kts 120°
2026-04-28 15:07 -7.95478 113.77944 40706 ft 471 kts 120°
2026-04-28 15:07 -7.97106 113.80779 40455 ft 463 kts 120°
2026-04-28 15:08 -7.98912 113.83464 40213 ft 463 kts 129°
2026-04-28 15:08 -8.01103 113.85795 39989 ft 467 kts 138°
2026-04-28 15:08 -8.03565 113.87937 39671 ft 468 kts 136°
2026-04-28 15:08 -8.05903 113.90241 39031 ft 471 kts 134°
2026-04-28 15:09 -8.08202 113.92616 37970 ft 477 kts 133°
2026-04-28 15:09 -8.10546 113.95031 36610 ft 485 kts 134°
2026-04-28 15:09 -8.12954 113.97470 35208 ft 493 kts 134°
2026-04-28 15:09 -8.15404 113.99918 33817 ft 499 kts 135°
2026-04-28 15:10 -8.17889 114.02383 32286 ft 502 kts 135°
2026-04-28 15:10 -8.20388 114.04854 30799 ft 500 kts 135°
2026-04-28 15:10 -8.22883 114.07321 29119 ft 504 kts 135°
2026-04-28 15:10 -8.25375 114.09783 28049 ft 497 kts 135°
2026-04-28 15:11 -8.27824 114.12204 27223 ft 489 kts 135°
2026-04-28 15:11 -8.30237 114.14591 26438 ft 482 kts 135°
2026-04-28 15:11 -8.32574 114.16904 25649 ft 477 kts 135°
2026-04-28 15:11 -8.34945 114.19252 24853 ft 472 kts 135°
2026-04-28 15:12 -8.37276 114.21562 24095 ft 467 kts 135°
2026-04-28 15:12 -8.39578 114.23844 23310 ft 462 kts 135°
2026-04-28 15:12 -8.41858 114.26102 22488 ft 456 kts 135°
2026-04-28 15:12 -8.44102 114.28325 21696 ft 449 kts 135°
2026-04-28 15:13 -8.46321 114.30524 20897 ft 443 kts 135°
2026-04-28 15:13 -8.48505 114.32690 20108 ft 437 kts 135°
2026-04-28 15:13 -8.50660 114.34826 19328 ft 431 kts 135°
2026-04-28 15:13 -8.52785 114.36933 18539 ft 425 kts 134°
2026-04-28 15:14 -8.54881 114.39011 17736 ft 420 kts 134°
2026-04-28 15:14 -8.56950 114.41064 16883 ft 413 kts 134°
2026-04-28 15:14 -8.58987 114.43084 16028 ft 407 kts 134°
2026-04-28 15:14 -8.60991 114.45074 15154 ft 401 kts 134°
2026-04-28 15:15 -8.62968 114.47037 14328 ft 395 kts 134°
2026-04-28 15:15 -8.64911 114.48967 13468 ft 389 kts 134°
2026-04-28 15:15 -8.66831 114.50873 12548 ft 384 kts 134°
2026-04-28 15:15 -8.68724 114.52754 11638 ft 379 kts 134°
2026-04-28 15:16 -8.70593 114.54612 10748 ft 375 kts 134°
2026-04-28 15:16 -8.72426 114.56432 10222 ft 358 kts 134°
2026-04-28 15:16 -8.74127 114.58119 9938 ft 328 kts 134°
2026-04-28 15:16 -8.75644 114.59623 9690 ft 301 kts 134°
2026-04-28 15:17 -8.77103 114.61076 9007 ft 291 kts 134°
2026-04-28 15:17 -8.78515 114.62485 8481 ft 279 kts 134°
2026-04-28 15:17 -8.79880 114.63846 8294 ft 284 kts 134°
2026-04-28 15:17 -8.81310 114.65272 8179 ft 285 kts 134°
2026-04-28 15:18 -8.82713 114.66675 7876 ft 283 kts 133°
2026-04-28 15:18 -8.83745 114.68284 7513 ft 274 kts 110°
2026-04-28 15:18 -8.84004 114.70131 7158 ft 261 kts 84°
2026-04-28 15:18 -8.83485 114.71831 6815 ft 249 kts 65°
2026-04-28 15:19 -8.82735 114.73450 6469 ft 270 kts 65°
2026-04-28 15:19 -8.81932 114.75263 6125 ft 289 kts 67°
2026-04-28 15:19 -8.81153 114.77108 6053 ft 280 kts 68°
2026-04-28 15:19 -8.80420 114.78887 5741 ft 270 kts 68°
2026-04-28 15:20 -8.79708 114.80635 5125 ft 267 kts 68°
2026-04-28 15:20 -8.79004 114.82367 4501 ft 265 kts 68°
2026-04-28 15:20 -8.78323 114.84043 4151 ft 251 kts 68°
2026-04-28 15:20 -8.77671 114.85644 3806 ft 242 kts 68°
2026-04-28 15:21 -8.77024 114.87235 3465 ft 257 kts 68°
2026-04-28 15:21 -8.76317 114.88971 3137 ft 269 kts 68°
2026-04-28 15:21 -8.75680 114.90685 2990 ft 250 kts 75°
2026-04-28 15:21 -8.75430 114.92353 2858 ft 232 kts 88°
2026-04-28 15:22 -8.75463 114.93928 2727 ft 218 kts 91°
2026-04-28 15:22 -8.75497 114.95422 2600 ft 208 kts 90°
2026-04-28 15:22 -8.75514 114.96852 2488 ft 199 kts 90°
2026-04-28 15:22 -8.75523 114.98208 2365 ft 192 kts 90°
2026-04-28 15:23 -8.75528 114.99553 2235 ft 186 kts 90°
2026-04-28 15:23 -8.75506 115.00835 2104 ft 180 kts 87°
2026-04-28 15:23 -8.75450 115.02078 2004 ft 173 kts 86°
2026-04-28 15:23 -8.75386 115.03270 2013 ft 169 kts 86°
2026-04-28 15:24 -8.75330 115.04397 2003 ft 150 kts 86°
2026-04-28 15:24 -8.75282 115.05474 1977 ft 158 kts 87°
2026-04-28 15:24 -8.75231 115.06577 1718 ft 151 kts 86°
2026-04-28 15:24 -8.75199 115.07584 1553 ft 142 kts 88°
2026-04-28 15:25 -8.75186 115.08587 1352 ft 144 kts 89°
2026-04-28 15:25 -8.75179 115.09595 1000 ft 142 kts 89°
2026-04-28 15:25 -8.75119 115.10562 773 ft 137 kts 86°
2026-04-28 15:25 -8.75052 115.11545 717 ft 139 kts 88°
2026-04-28 15:26 -8.75060 115.12522 645 ft 142 kts 92°
2026-04-28 15:26 -8.75014 115.13505 459 ft 136 kts 85°
2026-04-28 15:26 -8.74929 115.14466 276 ft 135 kts 90°
2026-04-28 15:26 -8.74893 115.15426 91 ft 143 kts 91°
2026-04-28 15:27 -8.74865 115.16369 34 ft 112 kts 88°
2026-04-28 15:27 -8.74840 115.16886 34 ft 54 kts 88°
2026-04-28 15:27 -8.74827 115.17135 32 ft 16 kts 88°
2026-04-28 15:27 -8.74823 115.17266 33 ft 19 kts 88°
2026-04-28 15:28 -8.74765 115.17316 34 ft 10 kts
2026-04-28 15:28 -8.74675 115.17303 38 ft 14 kts 330°
2026-04-28 15:28 -8.74658 115.17220 38 ft 16 kts 270°
2026-04-28 15:28 -8.74663 115.17092 38 ft 20 kts 266°
2026-04-28 15:29 -8.74670 115.16942 38 ft 22 kts 267°
2026-04-28 15:29 -8.74672 115.16897 38 ft 3 kts 268°
2026-04-28 15:29 -8.74652 115.16874 38 ft 5 kts 325°
2026-04-28 15:29 -8.74614 115.16871 39 ft 7 kts 358°
2026-04-28 15:30 -8.74567 115.16869 39 ft 4 kts 358°
2026-04-28 15:30 -8.74544 115.16868 39 ft 4 kts 358°
2026-04-28 15:30 -8.74538 115.16868 39 ft 0 kts 357°